User: anonymous
Location: Mentone
(34.5413°N, 85.5351°W)
Time: 14:14:16
(UTC-05:00)
Language:

A-11 Canister half - Orbit

View from above orbital plane
View from above orbital plane
View from above satellite
View from above satellite

Ground track
Ground track

The orbit data is extracted from the following two-line orbital elements,

1 00053U 60009E   14205.80977395 -.00000084  00000-0  00000+0 0  5430
2 00053 047.2769 063.0342 0097644 194.2943 296.3272 12.17141377406134
Epoch (UTC): 24 July 2014 19:26:04
Eccentricity: 0.0097644
inclination: 47.2769°
perigee height: 1527 km
apogee height: 1683 km
right ascension of ascending node: 63.0342°
argument of perigee: 194.2943°
revolutions per day: 12.17141377
mean anomaly at epoch: 296.3272°
orbit number at epoch: 40613

The dashed part of the orbit path shows where the satellite is in the earth's shadow,  

DLR